[[{"header":{"parameterUnit":"m.s-1","parameterCategory":1,"la1":30.2991,"la2":30.254,"lo1":-89.0895,"lo2":-89.0444,"dy":0.0017,"dx":0.0017,"nx":28,"ny":28,"refTime":"2025-05-16T09:00:00:Z","depth":0,"parameterNumber":2,"parameterNumberName":"U-component_of_WINDS"},"data":[0,0,0,0,0,0,0,0,0,0,0,0,0,0,0,0,0,0,0,0,0,0,0,0,0,0,0,0,0,0,0,0,0,0,0,0,0,0,0,0,0,0,0,0,0,0,0,0,0,0,0,0,0,0,0,0,0,0,-0.6367,-0.6367,0,-0.6306,-0.6306,-0.6305,-0.6279,-0.6279,-0.6279,-0.6279,-0.6216,-0.6214,-0.6212,0,0,0,0,0,0,0,0,0,0,0,0,0,-0.646,-0.6459,-0.6367,-0.6367,-0.6366,-0.6307,-0.6306,-0.6305,-0.6279,-0.6279,-0.6279,-0.6279,-0.6216,-0.6214,-0.6212,0,0,0,0,0,0,0,0,0,0,0,0,0,-0.6412,-0.6458,-0.6367,-0.6345,-0.6343,-0.6307,-0.6306,-0.6305,-0.6279,-0.6279,-0.6279,-0.6279,-0.6217,-0.6215,-0.6212,-0.6193,0,0,-0.6204,-0.6203,0,0,0,0,0,0,0,0,-0.6414,-0.6408,-0.6349,-0.6347,-0.6344,-0.63,-0.6315,-0.6267,-0.6279,-0.6303,-0.6279,-0.6279,-0.6244,-0.6239,-0.6227,-0.619,-0.6187,-0.6204,-0.6202,-0.6201,-0.62,0,0,0,0,0,0,0,-0.6418,-0.6411,-0.6343,-0.6349,-0.6345,-0.6339,-0.6332,-0.6306,-0.6273,-0.6301,-0.6299,-0.6292,-0.6242,-0.623,-0.6226,-0.6186,-0.6204,-0.6201,-0.62,-0.6199,-0.613,-0.613,0,0,0,0,0,0,-0.6425,-0.6414,-0.6345,-0.6341,-0.638,-0.6337,-0.6329,-0.6314,-0.6274,-0.6267,-0.6292,-0.6291,-0.6234,-0.6229,-0.6223,-0.6198,-0.6201,-0.6198,-0.6197,-0.613,-0.613,-0.613,0,0,0,0,0,0,-0.6427,-0.6419,-0.6348,-0.6377,-0.6367,-0.6335,-0.6318,-0.6313,-0.63,-0.6267,-0.6261,-0.6285,-0.6234,-0.6227,-0.6201,-0.6196,-0.6197,-0.6195,-0.6131,-0.613,-0.613,-0.6148,0,0,0,0,0,0,-0.643,-0.642,-0.6412,-0.6377,-0.6366,-0.6326,-0.6318,-0.6312,-0.6296,-0.6294,-0.6259,-0.6253,-0.6234,-0.6205,-0.6198,-0.6192,-0.6193,-0.6131,-0.613,-0.613,-0.6148,-0.6148,-0.6149,0,0,0,0,0,-0.6433,-0.642,-0.6412,-0.6404,-0.6356,-0.6326,-0.632,-0.6298,-0.6296,-0.6288,-0.6266,-0.6254,-0.6197,-0.6202,-0.6194,-0.6188,-0.6131,-0.6131,-0.613,-0.6147,-0.6148,-0.6149,0,0,0,0,0,0,-0.6455,-0.6415,-0.6406,-0.638,-0.6357,-0.6322,-0.6311,-0.6299,-0.6275,-0.6275,-0.6248,-0.6241,-0.6217,-0.6199,-0.6206,-0.6167,-0.6163,-0.6161,-0.6179,-0.6179,-0.618,-0.6184,-0.6191,0,0,0,0,0,-0.6457,-0.6436,-0.6402,-0.6383,-0.6372,-0.6343,-0.633,-0.6315,-0.6289,-0.6279,-0.6255,-0.6231,-0.6207,-0.6192,-0.6169,-0.6145,-0.6137,-0.6136,-0.6137,-0.6138,-0.6136,-0.6122,-0.6121,-0.6128,-0.6128,-0.6128,0,0,-0.646,-0.6436,-0.6424,-0.6387,-0.6367,-0.6346,-0.6335,-0.6313,-0.6297,-0.6276,-0.6249,-0.6231,-0.6202,-0.6177,-0.6165,-0.6162,-0.6132,-0.6137,-0.6138,-0.6136,-0.6121,-0.6121,-0.612,-0.6128,-0.6128,-0.6128,0,0,-0.6456,-0.6436,-0.6418,-0.6398,-0.6368,-0.6349,-0.6345,-0.6311,-0.6299,-0.6272,-0.6255,-0.6236,-0.6196,-0.6176,-0.6161,-0.6149,-0.6137,-0.6143,-0.6145,-0.6132,-0.6131,-0.6131,-0.6127,-0.6125,-0.6141,-0.6141,-0.6141,0,-0.6465,-0.6432,-0.641,-0.6389,-0.6373,-0.6353,-0.6334,-0.6316,-0.628,-0.6269,-0.6267,-0.6216,-0.6195,-0.6165,-0.6162,-0.6151,-0.6145,-0.6146,-0.6133,-0.6133,-0.6132,-0.6127,-0.6126,-0.6142,-0.6142,-0.6142,-0.6142,0,-0.6444,-0.6422,-0.6411,-0.6377,-0.6359,-0.634,-0.6314,-0.63,-0.6286,-0.6268,-0.6241,-0.6215,-0.6186,-0.6178,-0.6165,-0.6146,-0.6145,-0.6139,-0.6134,-0.6132,-0.6128,-0.6126,-0.6143,-0.6143,-0.6143,-0.6142,0,0,-0.6451,-0.6405,-0.6402,-0.6386,-0.6352,-0.6334,-0.6314,-0.6286,-0.6273,-0.6249,-0.6231,-0.6198,-0.6192,-0.6174,-0.6159,-0.6147,-0.614,-0.6142,-0.6141,-0.6142,-0.6117,-0.6123,-0.6121,-0.6132,-0.6132,-0.6131,-0.612,0,-0.6442,-0.6405,-0.6384,-0.6355,-0.6335,-0.6316,-0.6298,-0.6275,-0.6257,-0.6237,-0.6217,-0.6194,-0.6188,-0.6177,-0.6165,-0.6143,-0.6135,-0.6144,-0.6115,-0.6114,-0.6122,-0.6119,-0.6124,-0.6114,-0.6118,-0.6118,-0.6117,0,-0.6427,-0.6403,-0.6373,-0.6341,-0.6331,-0.6316,-0.6288,-0.627,-0.6243,-0.6231,-0.6212,-0.6196,-0.6174,-0.6172,-0.614,-0.6147,-0.6134,-0.6122,-0.6121,-0.6117,-0.6115,-0.6115,-0.6111,-0.6109,-0.6114,-0.6115,-0.6115,0,-0.6435,-0.6396,-0.6372,-0.636,-0.6322,-0.6311,-0.6295,-0.6269,-0.6253,-0.6229,-0.6219,-0.6193,-0.6179,-0.6158,-0.6136,-0.6137,-0.6107,-0.6103,-0.6096,-0.6097,-0.609,-0.6091,-0.6084,-0.6083,-0.6083,-0.6083,-0.6083,0,-0.6427,-0.6409,-0.6376,-0.6361,-0.634,-0.6317,-0.6297,-0.6279,-0.6256,-0.6238,-0.6219,-0.6202,-0.6174,-0.6154,-0.6136,-0.6113,-0.6107,-0.6096,-0.6092,-0.6098,-0.6099,-0.6088,-0.6088,-0.6082,-0.6082,-0.6082,-0.6082,0,-0.6433,-0.641,-0.6383,-0.635,-0.6341,-0.6327,-0.6298,-0.6283,-0.6265,-0.6242,-0.6236,-0.6207,-0.6182,-0.6158,-0.6124,-0.6113,-0.6089,-0.6083,-0.6098,-0.6096,-0.609,-0.6091,-0.6076,-0.6073,-0.6074,-0.6074,-0.6074,0,-0.6429,-0.6415,-0.638,-0.6367,-0.6351,-0.6329,-0.6314,-0.629,-0.6274,-0.6243,-0.6232,-0.6206,-0.6184,-0.6145,-0.6121,-0.6095,-0.6088,-0.6085,-0.6084,-0.6091,-0.6088,-0.6089,-0.6087,-0.6085,-0.6085,-0.6085,-0.6086,0,-0.6425,-0.6414,-0.6392,-0.6367,-0.6348,-0.6327,-0.6305,-0.6295,-0.6267,-0.625,-0.6224,-0.6207,-0.6173,-0.6147,-0.6119,-0.6102,-0.6089,-0.6086,-0.6083,-0.6089,-0.6098,-0.6093,-0.61,-0.6086,-0.6086,-0.6086,-0.6086,-0.6086,-0.6425,-0.6412,-0.6385,-0.6362,-0.6343,-0.6322,-0.6307,-0.6287,-0.6265,-0.6236,-0.6223,-0.6198,-0.6171,-0.6132,-0.6115,-0.6094,-0.6091,-0.6087,-0.6086,-0.6085,-0.6086,-0.6102,-0.6089,-0.6089,-0.6089,-0.6089,-0.6089,0,-0.642,-0.6402,-0.6381,-0.635,-0.6332,-0.6322,-0.6297,-0.6282,-0.6259,-0.6236,-0.6215,-0.6186,-0.6161,-0.6135,-0.6108,-0.6097,-0.609,-0.609,-0.6091,-0.6087,-0.6091,-0.6096,-0.6096,-0.6096,-0.6096,-0.6096,-0.6096,-0.6096,-0.6415,-0.6392,-0.6378,-0.6345,-0.6327,-0.6302,-0.6289,-0.627,-0.6251,-0.622,-0.6199,-0.6182,-0.6158,-0.6129,-0.6106,-0.6099,-0.609,-0.6092,-0.6083,-0.6087,-0.6087,-0.6086,-0.6091,-0.609,-0.609,-0.6081,-0.6081,-0.6081]},{"header":{"parameterUnit":"m.s-1","parameterCategory":1,"la1":30.2991,"la2":30.254,"lo1":-89.0895,"lo2":-89.0444,"dy":0.0017,"dx":0.0017,"nx":28,"ny":28,"refTime":"2025-05-16T09:00:00:Z","depth":0,"parameterNumber":3,"parameterNumberName":"V-component_of_WINDS"},"data":[0,0,0,0,0,0,0,0,0,0,0,0,0,0,0,0,0,0,0,0,0,0,0,0,0,0,0,0,0,0,0,0,0,0,0,0,0,0,0,0,0,0,0,0,0,0,0,0,0,0,0,0,0,0,0,0,0,0,5.3186,5.3187,0,5.326,5.3261,5.3262,5.3236,5.3234,5.3233,5.3231,5.3306,5.3309,5.3312,0,0,0,0,0,0,0,0,0,0,0,0,0,5.3022,5.3025,5.3186,5.3187,5.3188,5.326,5.3261,5.3262,5.3236,5.3234,5.3232,5.323,5.3304,5.3308,5.3313,0,0,0,0,0,0,0,0,0,0,0,0,0,5.3094,5.3026,5.3186,5.3184,5.3184,5.326,5.3261,5.3262,5.3237,5.3234,5.3232,5.323,5.3303,5.3308,5.3313,5.3395,0,0,5.3329,5.3332,0,0,0,0,0,0,0,0,5.309,5.31,5.3183,5.3184,5.3185,5.3236,5.323,5.3306,5.3237,5.3217,5.3231,5.3228,5.3284,5.3291,5.331,5.3398,5.3401,5.333,5.3333,5.3335,5.3337,0,0,0,0,0,0,0,5.3085,5.3097,5.3215,5.3184,5.3185,5.3179,5.3186,5.3244,5.3263,5.3218,5.3217,5.3226,5.3284,5.3305,5.3312,5.3402,5.333,5.3334,5.3338,5.334,5.3563,5.3565,0,0,0,0,0,0,5.308,5.3093,5.3213,5.3217,5.313,5.3184,5.3192,5.3222,5.3263,5.3266,5.3228,5.3224,5.3297,5.3306,5.3314,5.3414,5.3335,5.334,5.3343,5.356,5.3563,5.3566,0,0,0,0,0,0,5.3076,5.3091,5.321,5.3155,5.3169,5.3189,5.3223,5.3225,5.3246,5.327,5.3273,5.3246,5.3296,5.3307,5.3375,5.3416,5.3342,5.3347,5.3557,5.3561,5.3565,5.3612,0,0,0,0,0,0,5.3072,5.3089,5.3121,5.3156,5.3172,5.327,5.3225,5.3228,5.3255,5.3251,5.3288,5.3291,5.3295,5.3368,5.3381,5.3422,5.3351,5.3553,5.3558,5.3563,5.3607,5.3617,5.3626,0,0,0,0,0,5.3066,5.313,5.3122,5.3137,5.3212,5.3272,5.3282,5.3285,5.3258,5.329,5.3306,5.329,5.3409,5.3375,5.3389,5.3432,5.355,5.3557,5.3563,5.3603,5.3615,5.3626,0,0,0,0,0,0,5.3098,5.3135,5.3126,5.3204,5.3235,5.3268,5.3308,5.3298,5.3337,5.3332,5.3334,5.3342,5.3413,5.3429,5.3391,5.3514,5.3476,5.3485,5.3501,5.3513,5.3523,5.3517,5.3356,0,0,0,0,0,5.3115,5.3161,5.319,5.3256,5.3272,5.3287,5.3314,5.3314,5.3346,5.3359,5.338,5.3411,5.3456,5.3485,5.3528,5.3609,5.3617,5.3646,5.3655,5.3663,5.3671,5.3717,5.3731,5.3587,5.3587,5.3587,0,0,5.3149,5.3174,5.3203,5.3263,5.3287,5.3336,5.3299,5.3351,5.3387,5.3367,5.3433,5.345,5.3485,5.3561,5.3595,5.3577,5.3713,5.3671,5.3677,5.3681,5.3725,5.3739,5.3751,5.3591,5.359,5.3589,0,0,5.3236,5.3259,5.3318,5.3343,5.3381,5.3391,5.3405,5.3439,5.345,5.3517,5.3503,5.3546,5.3622,5.3649,5.3672,5.3771,5.3759,5.3785,5.3835,5.388,5.3891,5.3901,5.3938,5.3951,5.3793,5.3793,5.3793,0,5.3273,5.3346,5.3348,5.3403,5.343,5.3415,5.3474,5.3499,5.3548,5.3567,5.3546,5.3643,5.3666,5.3748,5.3773,5.3792,5.3808,5.3781,5.3889,5.39,5.3909,5.3944,5.3958,5.3796,5.3796,5.3795,5.3795,0,5.339,5.3441,5.3483,5.3533,5.3565,5.3621,5.3633,5.3664,5.3662,5.3674,5.3743,5.377,5.3819,5.3838,5.3836,5.3921,5.3909,5.3888,5.385,5.3926,5.3959,5.3972,5.38,5.3799,5.3798,5.3798,0,0,5.3499,5.3551,5.3567,5.359,5.3631,5.367,5.3726,5.3774,5.3802,5.3837,5.3884,5.395,5.3933,5.3959,5.396,5.3999,5.4078,5.3974,5.3975,5.3993,5.4175,5.4191,5.4206,5.4069,5.4072,5.4074,5.4172,0,5.3591,5.369,5.3695,5.3785,5.3832,5.382,5.3869,5.39,5.3913,5.3955,5.3969,5.4017,5.3989,5.4005,5.4043,5.406,5.4114,5.4053,5.4114,5.4116,5.4107,5.4223,5.424,5.4331,5.4185,5.4187,5.4189,0,5.371,5.375,5.3846,5.3882,5.3902,5.3946,5.3991,5.4031,5.4066,5.4073,5.4104,5.41,5.4158,5.4117,5.4197,5.4156,5.4181,5.4193,5.4197,5.4203,5.4158,5.4234,5.436,5.4375,5.4209,5.4207,5.4206,0,5.3782,5.386,5.3927,5.3947,5.399,5.4022,5.4041,5.4074,5.4103,5.4143,5.4162,5.4207,5.4233,5.4268,5.4276,5.4246,5.4357,5.4317,5.4365,5.4365,5.439,5.4388,5.4523,5.4404,5.4404,5.4404,5.4404,0,5.3884,5.3943,5.396,5.4002,5.4068,5.4073,5.4138,5.4156,5.4185,5.423,5.4221,5.4264,5.4271,5.4316,5.4322,5.4389,5.44,5.4407,5.4409,5.4409,5.4408,5.4426,5.442,5.4408,5.4407,5.4406,5.4406,0,5.3975,5.3989,5.4062,5.4098,5.4108,5.4156,5.4186,5.4226,5.4239,5.4296,5.431,5.433,5.4382,5.4393,5.4454,5.4459,5.4538,5.4532,5.4526,5.4526,5.4575,5.457,5.4727,5.4748,5.4614,5.4616,5.4617,0,5.404,5.4086,5.4127,5.4157,5.4178,5.4226,5.4256,5.4263,5.4295,5.434,5.4375,5.4426,5.4467,5.455,5.457,5.4617,5.4613,5.4665,5.462,5.462,5.4616,5.4614,5.4619,5.4674,5.4675,5.4676,5.4677,0,5.4154,5.4159,5.4203,5.4251,5.4287,5.4324,5.436,5.4385,5.4397,5.4433,5.4486,5.4519,5.4582,5.4633,5.4681,5.4701,5.4692,5.4691,5.4705,5.4706,5.4702,5.4706,5.4551,5.4688,5.4687,5.4686,5.4685,5.4685,5.4235,5.4275,5.4311,5.4361,5.4389,5.4423,5.4463,5.4481,5.4526,5.4579,5.458,5.4638,5.4673,5.4737,5.476,5.4806,5.479,5.481,5.4815,5.482,5.4825,5.4694,5.4814,5.4814,5.4814,5.4814,5.4813,0,5.4349,5.4372,5.4418,5.4469,5.4509,5.4497,5.4536,5.457,5.4622,5.4656,5.4697,5.4759,5.4809,5.4833,5.4883,5.4915,5.4913,5.4928,5.4926,5.4932,5.4836,5.482,5.493,5.493,5.493,5.493,5.493,5.493,5.4414,5.4482,5.4492,5.4574,5.4596,5.4654,5.4678,5.4709,5.4736,5.4806,5.4848,5.4864,5.4895,5.4947,5.4992,5.4998,5.5017,5.5035,5.5039,5.495,5.4938,5.4927,5.4911,5.5039,5.5039,5.5131,5.5132,5.5133]}]]